Weather in Burgessville

Canada     42°59′14″N   80°35′50″W
temp.,
°C
wind,
m/s
gust,
m/s
humid.,
%
clouds,
%
prec.,
mm/h
press.,
hPa
HPBL,
m
13 april, tue
tue1323:00+8ene239127 0.1 1013168
02:00+7ese22965 0.1 101437
05:00+6ese119742 0.0 101610
08:00+8wsw119684 0.2 101763
11:00+13w34635 0.0 1017910
14:00+16w454185 0.0 10171591
17:00+16wsw554029 0.0 10161757
20:00+10sw47655 0.0 1018172
14 april, wed
wed1423:00+9sw346069 0.0 101857
02:00+8wnw36705 0.0 1018104
05:00+6wnw35715 0.0 101896
08:00+6wnw25745 0.0 1018141
11:00+11w23495 0.0 10171031
14:00+14sw5742100 0.0 10142263
17:00+12wsw665143 0.0 10131606
20:00+8nw5773100 0.1 1013532
15 april, thu
thu1523:00+6wnw3578100 0.0 1012674
02:00+5wsw258267 0.1 1011327
05:00+4w368378 0.2 1010318
08:00+4w468293 0.4 1010649
11:00+5w676790 0.3 10091239
14:00+4nw577891 0.6 1009868
17:00+7nw5660100 0.7 10081228
20:00+5nw47706 0.8 1009264
16 april, fri
fri1623:00+3wnw368184 0.0 1010220
02:00+2w3696100 0.1 1009301
05:00+3wsw3697100 0.9 1008547
08:00+3nw3595100 1.1 1009631
11:00+3nnw2288100 0.2 1010433
14:00+7n4468100 0.2 10101036
17:00+9nw455791 0.0 10101371
20:00+6nw587690 0.0 1012509
17 april, sat
sat1723:00+4nne35878 0.0 1014200
02:00+2n34955 0.0 101591
05:00+2nnw229329 0.0 101533
08:00+4nnw2485100 0.0 1016223
11:00+8ene4562100 0.0 10151221
14:00+9ene3458100 0.0 10141403
17:00+11ene4550100 0.0 10131617
20:00+7s3371100 0.0 101455